sat.trackr.live / text

‹ back to catalog

STARLINK-6289

NORAD 56408 · 2023-061AL

PAYLOAD ACTIVE UNKNOWN

§ Identity

Operator
Country
US
Launch date
2023-05-04
Launch site
AFETR
Launch vehicle
Mass (kg)
RCS (m²)

Purposes: comms

External: N2YO · Heavens-Above · Gunter

§ Orbital elements

Epoch: 2026-05-24T23:09:59.266656Z

Period
94.27 min
Inclination
43.0043°
Eccentricity
0.0000919
Mean motion
15.27586544 rev/d
Perigee alt
482.4 km
Apogee alt
483.7 km
Semi-major
6,861.2 km
B*
2.3796e-5
RAAN
115.9395°
Arg perigee
264.3038°
Mean anomaly
95.7709°
Rev number
16,854

§ Raw data

STARLINK-62891 56408U 23061AL  26144.96526929  .00000393  00000+0  23796-4 0  99952 56408  43.0043 115.9395 0000919 264.3038  95.7709 15.27586544168545

JSON: /api/v1/satellites/56408 · /tle

For live sub-satellite position, see the globe view (requires WebGL).

§ Visibility from observer

Set your observer location to see the next 7 days of passes ≥ 10°. The values pass through the URL so the page stays shareable.

No JS? Fill the form by hand. The geolocation button needs JavaScript.